,,,PA_Meas_PMT16A,,PR_Meas_QMR101_102,,RH_Meas_QMH101,,SR_Meas_QMS101,,TA_Meas_QMH101,,GenWind,,GenWind,
date,time,status,PA,status,PR,status,RH,status,SR,status,TA,status,DirAvg,status,SpdAvg,
2008-11-05, 00:00:04,VALID,1009.5,VALID,0,VALID,92.3326,VALID,0,VALID,23.3823,VALID,149,VALID,0.346875,
2008-11-05, 00:01:04,VALID,1009.52,VALID,0,VALID,92.3326,VALID,0,VALID,23.3823,VALID,149,VALID,0.188281,
2008-11-05, 00:02:04,VALID,1009.49,VALID,0,VALID,92.3174,VALID,0,VALID,23.361,VALID,149,VALID,0.142188,
2008-11-05, 00:03:04,VALID,1009.49,VALID,0,VALID,92.4013,VALID,0.105969,VALID,23.3805,VALID,149,VALID,0,
2008-11-05, 00:04:04,VALID,1009.48,VALID,0,VALID,92.4394,VALID,0,VALID,23.361,VALID,149,VALID,0,
2008-11-05, 00:05:04,VALID,1009.47,VALID,0,VALID,92.5995,VALID,0,VALID,23.3823,VALID,147,VALID,0.285547,
2008-11-05, 00:06:04,VALID,1009.46,VALID,0,VALID,92.7825,VALID,0,VALID,23.3823,VALID,42,VALID,0.307813,
2008-11-05, 00:07:04,VALID,1009.48,VALID,0,VALID,92.9046,VALID,0,VALID,23.3433,VALID,42,VALID,0.189453,
2008-11-05, 00:08:04,VALID,1009.43,VALID,0,VALID,92.9198,VALID,0,VALID,23.3238,VALID,43,VALID,0.346484,
2008-11-05, 00:09:04,VALID,1009.43,VALID,0,VALID,92.9122,VALID,0,VALID,23.2831,VALID,43,VALID,0.182812,
2008-11-05, 00:10:04,VALID,1009.41,VALID,0,VALID,92.9351,VALID,0,VALID,23.2848,VALID,43,VALID,0.221094,
2008-11-05, 00:11:04,VALID,1009.39,VALID,0,VALID,93.0494,VALID,0,VALID,23.2848,VALID,43,VALID,0.0917969,
2008-11-05, 00:12:04,VALID,1009.36,VALID,0,VALID,93.1943,VALID,0,VALID,23.2654,VALID,43,VALID,0.312891,
2008-11-05, 00:13:04,VALID,1009.34,VALID,0,VALID,93.3468,VALID,0.105969,VALID,23.2441,VALID,43,VALID,0.280469,
2008-11-05, 00:14:04,VALID,1009.34,VALID,0,VALID,93.3697,VALID,0.105969,VALID,23.2459,VALID,43,VALID,0.0195313,
2008-11-05, 00:15:04,VALID,1009.32,VALID,0,VALID,93.385,VALID,0,VALID,23.2246,VALID,43,VALID,0,
2008-11-05, 00:16:04,VALID,1009.29,VALID,0,VALID,93.385,VALID,0.105969,VALID,23.2654,VALID,43,VALID,0,
2008-11-05, 00:17:04,VALID,1009.29,VALID,0,VALID,93.4002,VALID,0,VALID,23.2654,VALID,43,VALID,0,
2008-11-05, 00:18:04,VALID,1009.28,VALID,0,VALID,93.2782,VALID,0,VALID,23.2459,VALID,43,VALID,0.557422,
2008-11-05, 00:19:04,VALID,1009.27,VALID,0,VALID,93.202,VALID,0.105969,VALID,23.2654,VALID,41,VALID,0.542188,
2008-11-05, 00:20:04,VALID,1009.25,VALID,0,VALID,93.1562,VALID,0,VALID,23.2654,VALID,41,VALID,0.311719,
2008-11-05, 00:21:04,VALID,1009.26,VALID,0,VALID,93.1028,VALID,0.105969,VALID,23.2654,VALID,40,VALID,0.225781,
2008-11-05, 00:22:04,VALID,1009.27,VALID,0,VALID,93.0952,VALID,0,VALID,23.2459,VALID,40,VALID,0,
2008-11-05, 00:23:04,VALID,1009.21,VALID,0,VALID,93.0266,VALID,0,VALID,23.2459,VALID,40,VALID,0.0613281,
2008-11-05, 00:24:04,VALID,1009.22,VALID,0,VALID,92.9961,VALID,0,VALID,23.2264,VALID,40,VALID,0.154687,
2008-11-05, 00:25:04,VALID,1009.21,VALID,0,VALID,92.9656,VALID,0,VALID,23.2264,VALID,40,VALID,0.235938,
2008-11-05, 00:26:04,VALID,1009.17,VALID,0,VALID,93.0037,VALID,0,VALID,23.2459,VALID,40,VALID,0.210938,
2008-11-05, 00:27:04,VALID,1009.2,VALID,0,VALID,93.0113,VALID,0,VALID,23.2264,VALID,40,VALID,0.150781,
2008-11-05, 00:28:04,VALID,1009.17,VALID,0,VALID,93.1028,VALID,0,VALID,23.2459,VALID,41,VALID,0.361719,
2008-11-05, 00:29:04,VALID,1009.16,VALID,0,VALID,93.2248,VALID,0,VALID,23.2459,VALID,40,VALID,0.121094,
2008-11-05, 00:30:04,VALID,1009.14,VALID,0,VALID,93.2172,VALID,0,VALID,23.2264,VALID,61,VALID,0.379687,
2008-11-05, 00:31:04,VALID,1009.15,VALID,0,VALID,93.1791,VALID,0,VALID,23.2459,VALID,61,VALID,0.117969,
2008-11-05, 00:32:04,VALID,1009.16,VALID,0,VALID,93.2248,VALID,0,VALID,23.2654,VALID,61,VALID,0.402344,
2008-11-05, 00:33:04,VALID,1009.14,VALID,0,VALID,93.1638,VALID,0,VALID,23.2459,VALID,61,VALID,0.0820313,
2008-11-05, 00:34:04,VALID,1009.13,VALID,0,VALID,93.2477,VALID,0,VALID,23.2459,VALID,61,VALID,0,
2008-11-05, 00:35:04,VALID,1009.1,VALID,0,VALID,93.263,VALID,0,VALID,23.2654,VALID,61,VALID,0,
2008-11-05, 00:36:04,VALID,1009.1,VALID,0,VALID,93.3468,VALID,0,VALID,23.2654,VALID,61,VALID,0,
2008-11-05, 00:37:04,VALID,1009.07,VALID,0,VALID,93.4384,VALID,0,VALID,23.2654,VALID,61,VALID,0.084375,
2008-11-05, 00:38:04,VALID,1009.05,VALID,0,VALID,93.4765,VALID,0,VALID,23.2866,VALID,61,VALID,0.0425781,
2008-11-05, 00:39:04,VALID,1009.06,VALID,0,VALID,93.446,VALID,0,VALID,23.2246,VALID,130,VALID,0.372656,
2008-11-05, 00:40:04,VALID,1009.05,VALID,0,VALID,93.324,VALID,0,VALID,23.2671,VALID,130,VALID,0.319531,
2008-11-05, 00:41:04,VALID,1009.06,VALID,0,VALID,93.2935,VALID,0,VALID,23.2264,VALID,133,VALID,0.367969,
2008-11-05, 00:42:04,VALID,1008.99,VALID,0,VALID,93.2935,VALID,0,VALID,23.2264,VALID,133,VALID,0,
2008-11-05, 00:43:04,VALID,1009.03,VALID,0,VALID,93.2706,VALID,0,VALID,23.2069,VALID,133,VALID,0,
2008-11-05, 00:44:04,VALID,1008.99,VALID,0,VALID,93.2553,VALID,0,VALID,23.2264,VALID,133,VALID,0.232031,
2008-11-05, 00:45:04,VALID,1009,VALID,0,VALID,93.1791,VALID,0,VALID,23.2069,VALID,133,VALID,0.146484,
2008-11-05, 00:46:04,VALID,1008.99,VALID,0,VALID,93.1791,VALID,0,VALID,23.2069,VALID,133,VALID,0,
2008-11-05, 00:47:04,VALID,1008.97,VALID,0,VALID,93.2935,VALID,0,VALID,23.2069,VALID,133,VALID,0.176953,
2008-11-05, 00:48:04,VALID,1008.97,VALID,0,VALID,93.3468,VALID,0,VALID,23.2069,VALID,133,VALID,0.241406,
2008-11-05, 00:49:04,VALID,1008.97,VALID,0,VALID,93.3011,VALID,0,VALID,23.1874,VALID,133,VALID,0.0261719,
2008-11-05, 00:50:04,VALID,1008.96,VALID,0,VALID,93.3621,VALID,0,VALID,23.1874,VALID,133,VALID,0.197656,
2008-11-05, 00:51:04,VALID,1008.95,VALID,0,VALID,93.3545,VALID,0,VALID,23.1679,VALID,133,VALID,0.185156,
2008-11-05, 00:52:04,VALID,1008.96,VALID,0,VALID,93.3087,VALID,0,VALID,23.1485,VALID,133,VALID,0.246484,
2008-11-05, 00:53:04,VALID,1008.97,VALID,0,VALID,93.2782,VALID,0,VALID,23.1272,VALID,133,VALID,0.2875,
2008-11-05, 00:54:04,VALID,1008.99,VALID,0,VALID,93.3011,VALID,0,VALID,23.129,VALID,132,VALID,0.253125,
2008-11-05, 00:55:04,VALID,1008.97,VALID,0,VALID,93.3011,VALID,0,VALID,23.1077,VALID,122,VALID,0.264062,
2008-11-05, 00:56:04,VALID,1008.99,VALID,0,VALID,93.3087,VALID,0,VALID,23.129,VALID,122,VALID,0.132813,
2008-11-05, 00:57:04,VALID,1008.97,VALID,0,VALID,93.3773,VALID,0,VALID,23.129,VALID,122,VALID,0,
2008-11-05, 00:58:04,VALID,1008.97,VALID,0,VALID,93.446,VALID,0,VALID,23.129,VALID,122,VALID,0.000390625,
2008-11-05, 00:59:04,VALID,1008.95,VALID,0,VALID,93.5222,VALID,0,VALID,23.1485,VALID,122,VALID,0.202344,
2008-11-05, 01:00:04,VALID,1008.96,VALID,0,VALID,93.5756,VALID,0,VALID,23.1485,VALID,122,VALID,0.304688,
2008-11-05, 01:01:04,VALID,1008.93,VALID,0,VALID,93.5451,VALID,0,VALID,23.1485,VALID,122,VALID,0.258203,
2008-11-05, 01:02:04,VALID,1008.91,VALID,0,VALID,93.5451,VALID,0,VALID,23.1502,VALID,122,VALID,0.222656,
2008-11-05, 01:03:04,VALID,1008.9,VALID,0,VALID,93.5604,VALID,0,VALID,23.129,VALID,122,VALID,0.323047,
2008-11-05, 01:04:04,VALID,1008.91,VALID,0,VALID,93.5756,VALID,0,VALID,23.1697,VALID,128,VALID,0.469141,
2008-11-05, 01:05:04,VALID,1008.91,VALID,0,VALID,93.6061,VALID,0,VALID,23.129,VALID,145,VALID,0.605859,
2008-11-05, 01:06:04,VALID,1008.89,VALID,0,VALID,93.5985,VALID,0,VALID,23.1095,VALID,151,VALID,0.728516,
2008-11-05, 01:07:04,VALID,1008.88,VALID,0,VALID,93.5909,VALID,0,VALID,23.129,VALID,152,VALID,0.608594,
2008-11-05, 01:08:04,VALID,1008.9,VALID,0,VALID,93.5375,VALID,0,VALID,23.129,VALID,138,VALID,0.520703,
2008-11-05, 01:09:04,VALID,1008.86,VALID,0,VALID,93.568,VALID,0,VALID,23.129,VALID,138,VALID,0.559766,
2008-11-05, 01:10:04,VALID,1008.87,VALID,0,VALID,93.5299,VALID,0,VALID,23.129,VALID,128,VALID,0.569141,
2008-11-05, 01:11:04,VALID,1008.82,VALID,0,VALID,93.4765,VALID,0,VALID,23.1485,VALID,115,VALID,0.602734,
2008-11-05, 01:12:04,VALID,1008.8,VALID,0,VALID,93.3545,VALID,0,VALID,23.1679,VALID,118,VALID,0.584375,
2008-11-05, 01:13:04,VALID,1008.8,VALID,0,VALID,93.3087,VALID,0,VALID,23.1874,VALID,127,VALID,0.419141,
2008-11-05, 01:14:04,VALID,1008.77,VALID,0,VALID,93.3011,VALID,0,VALID,23.1874,VALID,93,VALID,0.639844,
2008-11-05, 01:15:04,VALID,1008.74,VALID,0,VALID,93.2706,VALID,0,VALID,23.1874,VALID,113,VALID,0.546094,
2008-11-05, 01:16:04,VALID,1008.72,VALID,0,VALID,93.1486,VALID,0,VALID,23.1874,VALID,110,VALID,0.891797,
2008-11-05, 01:17:04,VALID,1008.72,VALID,0,VALID,93.0418,VALID,0,VALID,23.1874,VALID,118,VALID,0.843359,
2008-11-05, 01:18:04,VALID,1008.7,VALID,0,VALID,92.9503,VALID,0,VALID,23.1874,VALID,97,VALID,0.742188,
2008-11-05, 01:19:04,VALID,1008.69,VALID,0,VALID,92.9046,VALID,0,VALID,23.2069,VALID,98,VALID,0.942969,
2008-11-05, 01:20:04,VALID,1008.66,VALID,0,VALID,92.8969,VALID,0,VALID,23.1874,VALID,98,VALID,0.655078,
2008-11-05, 01:21:04,VALID,1008.69,VALID,0,VALID,92.9198,VALID,0,VALID,23.1874,VALID,99,VALID,0.696094,
2008-11-05, 01:22:04,VALID,1008.67,VALID,0,VALID,92.8436,VALID,0,VALID,23.2069,VALID,96,VALID,0.629687,
2008-11-05, 01:23:04,VALID,1008.65,VALID,0,VALID,92.7902,VALID,0,VALID,23.2087,VALID,102,VALID,0.734766,
2008-11-05, 01:24:04,VALID,1008.64,VALID,0,VALID,92.8436,VALID,0,VALID,23.1874,VALID,77,VALID,0.627734,
2008-11-05, 01:25:04,VALID,1008.6,VALID,0,VALID,92.8283,VALID,0,VALID,23.1679,VALID,72,VALID,0.589453,
2008-11-05, 01:26:04,VALID,1008.63,VALID,0,VALID,92.8969,VALID,0,VALID,23.1679,VALID,71,VALID,0.480859,
2008-11-05, 01:27:04,VALID,1008.6,VALID,0,VALID,92.9503,VALID,0,VALID,23.129,VALID,76,VALID,0.654297,
2008-11-05, 01:28:04,VALID,1008.58,VALID,0,VALID,93.0189,VALID,0,VALID,23.1095,VALID,64,VALID,0.555469,
2008-11-05, 01:29:04,VALID,1008.56,VALID,0,VALID,93.0799,VALID,0,VALID,23.0883,VALID,74,VALID,0.728906,
2008-11-05, 01:30:04,VALID,1008.56,VALID,0,VALID,93.1257,VALID,0,VALID,23.0688,VALID,69,VALID,0.840625,
2008-11-05, 01:31:04,VALID,1008.54,VALID,0,VALID,93.1562,VALID,0,VALID,23.0705,VALID,75,VALID,0.991016,
2008-11-05, 01:32:04,VALID,1008.52,VALID,0,VALID,93.2248,VALID,0,VALID,23.0511,VALID,93,VALID,0.659766,
2008-11-05, 01:33:04,VALID,1008.54,VALID,0,VALID,93.2706,VALID,0,VALID,23.0298,VALID,76,VALID,0.848047,
2008-11-05, 01:34:04,VALID,1008.53,VALID,0,VALID,93.3468,VALID,0,VALID,22.9909,VALID,81,VALID,0.564453,
2008-11-05, 01:35:04,VALID,1008.47,VALID,0,VALID,93.4307,VALID,0,VALID,23.0121,VALID,88,VALID,0.611328,
2008-11-05, 01:36:04,VALID,1008.47,VALID,0,VALID,93.4841,VALID,0,VALID,22.9714,VALID,71,VALID,0.650391,
2008-11-05, 01:37:04,VALID,1008.45,VALID,0,VALID,93.5222,VALID,0,VALID,22.9926,VALID,81,VALID,0.541406,
2008-11-05, 01:38:04,VALID,1008.47,VALID,0,VALID,93.5909,VALID,0,VALID,22.9731,VALID,81,VALID,0.521094,
2008-11-05, 01:39:04,VALID,1008.42,VALID,0,VALID,93.6214,VALID,0,VALID,22.9731,VALID,95,VALID,0.833594,
2008-11-05, 01:40:04,VALID,1008.45,VALID,0,VALID,93.6748,VALID,0,VALID,22.9536,VALID,95,VALID,0.646094,
2008-11-05, 01:41:04,VALID,1008.42,VALID,0,VALID,93.7053,VALID,0,VALID,22.9536,VALID,95,VALID,0.600391,
2008-11-05, 01:42:04,VALID,1008.41,VALID,0,VALID,93.751,VALID,0,VALID,22.9731,VALID,95,VALID,0.389453,
2008-11-05, 01:43:04,VALID,1008.44,VALID,0,VALID,93.7739,VALID,0,VALID,22.9731,VALID,101,VALID,0.453125,
2008-11-05, 01:44:04,VALID,1008.41,VALID,0,VALID,93.8196,VALID,0,VALID,22.9536,VALID,134,VALID,0.851953,
2008-11-05, 01:45:04,VALID,1008.41,VALID,0,VALID,93.8044,VALID,0,VALID,22.9324,VALID,123,VALID,0.757422,
2008-11-05, 01:46:04,VALID,1008.39,VALID,0,VALID,93.8273,VALID,0,VALID,22.9536,VALID,126,VALID,0.428516,
2008-11-05, 01:47:04,VALID,1008.41,VALID,0,VALID,93.8273,VALID,0,VALID,22.9536,VALID,126,VALID,0.403125,
2008-11-05, 01:48:04,VALID,1008.38,VALID,0,VALID,93.7891,VALID,0,VALID,22.9342,VALID,138,VALID,0.485938,
2008-11-05, 01:49:04,VALID,1008.36,VALID,0,VALID,93.7891,VALID,0,VALID,22.9342,VALID,150,VALID,0.663672,
2008-11-05, 01:50:04,VALID,1008.33,VALID,0,VALID,93.7891,VALID,0,VALID,22.8952,VALID,143,VALID,0.636328,
2008-11-05, 01:51:04,VALID,1008.34,VALID,0,VALID,93.8273,VALID,0,VALID,22.8757,VALID,151,VALID,0.535547,
2008-11-05, 01:52:04,VALID,1008.31,VALID,0,VALID,93.8502,VALID,0,VALID,22.8775,VALID,141,VALID,0.508984,
2008-11-05, 01:53:04,VALID,1008.27,VALID,0,VALID,93.8959,VALID,0,VALID,22.8562,VALID,125,VALID,0.501172,
2008-11-05, 01:54:04,VALID,1008.28,VALID,0,VALID,93.9493,VALID,0.105969,VALID,22.8368,VALID,137,VALID,0.531641,
2008-11-05, 01:55:04,VALID,1008.24,VALID,0,VALID,94.0255,VALID,0,VALID,22.8368,VALID,134,VALID,0.818359,
2008-11-05, 01:56:04,VALID,1008.23,VALID,0,VALID,94.0637,VALID,0,VALID,22.8368,VALID,126,VALID,0.698438,
2008-11-05, 01:57:04,VALID,1008.23,VALID,0,VALID,94.1171,VALID,0,VALID,22.8173,VALID,128,VALID,0.500391,
2008-11-05, 01:58:04,VALID,1008.26,VALID,0,VALID,94.1781,VALID,0,VALID,22.8173,VALID,128,VALID,0.542969,
2008-11-05, 01:59:04,VALID,1008.22,VALID,0,VALID,94.2009,VALID,0,VALID,22.8173,VALID,128,VALID,0.358984,
2008-11-05, 02:00:04,VALID,1008.25,VALID,0,VALID,94.2391,VALID,0,VALID,22.8368,VALID,128,VALID,0.251172,
2008-11-05, 02:01:04,VALID,1008.21,VALID,0,VALID,94.2696,VALID,0,VALID,22.7978,VALID,128,VALID,0.295703,
2008-11-05, 02:02:04,VALID,1008.23,VALID,0,VALID,94.3077,VALID,0,VALID,22.8173,VALID,128,VALID,0.498828,
2008-11-05, 02:03:04,VALID,1008.22,VALID,0,VALID,94.3382,VALID,0,VALID,22.7961,VALID,128,VALID,0.161328,
2008-11-05, 02:04:04,VALID,1008.21,VALID,0,VALID,94.3458,VALID,0,VALID,22.7978,VALID,122,VALID,0.313672,
2008-11-05, 02:05:04,VALID,1008.19,VALID,0,VALID,94.3839,VALID,0,VALID,22.8173,VALID,95,VALID,0.291797,
2008-11-05, 02:06:04,VALID,1008.2,VALID,0,VALID,94.3992,VALID,0,VALID,22.8173,VALID,97,VALID,0.505469,
2008-11-05, 02:07:04,VALID,1008.18,VALID,0,VALID,94.445,VALID,0,VALID,22.8173,VALID,97,VALID,0.263672,
2008-11-05, 02:08:04,VALID,1008.19,VALID,0,VALID,94.4526,VALID,0,VALID,22.7978,VALID,97,VALID,0,
2008-11-05, 02:09:04,VALID,1008.18,VALID,0,VALID,94.4526,VALID,0,VALID,22.7978,VALID,97,VALID,0.200781,
2008-11-05, 02:10:04,VALID,1008.19,VALID,0,VALID,94.4755,VALID,0,VALID,22.819,VALID,100,VALID,0.273438,
2008-11-05, 02:11:04,VALID,1008.2,VALID,0,VALID,94.4907,VALID,0,VALID,22.7978,VALID,100,VALID,0.211328,
2008-11-05, 02:12:04,VALID,1008.21,VALID,0,VALID,94.4983,VALID,0,VALID,22.7571,VALID,100,VALID,0,
2008-11-05, 02:13:04,VALID,1008.21,VALID,0,VALID,94.4907,VALID,0,VALID,22.7783,VALID,100,VALID,0.177344,
2008-11-05, 02:14:04,VALID,1008.24,VALID,0,VALID,94.4755,VALID,0,VALID,22.7588,VALID,95,VALID,0.169141,
2008-11-05, 02:15:04,VALID,1008.26,VALID,0,VALID,94.4907,VALID,0,VALID,22.7588,VALID,95,VALID,0.220703,
2008-11-05, 02:16:04,VALID,1008.28,VALID,0,VALID,94.4831,VALID,0,VALID,22.7394,VALID,95,VALID,0.278906,
2008-11-05, 02:17:04,VALID,1008.3,VALID,0,VALID,94.5212,VALID,0,VALID,22.7394,VALID,95,VALID,0.105469,
2008-11-05, 02:18:04,VALID,1008.3,VALID,0,VALID,94.5212,VALID,0.105969,VALID,22.7394,VALID,95,VALID,0.181641,
2008-11-05, 02:19:04,VALID,1008.31,VALID,0,VALID,94.5136,VALID,0,VALID,22.6987,VALID,95,VALID,0.2,
2008-11-05, 02:20:04,VALID,1008.3,VALID,0,VALID,94.5288,VALID,0,VALID,22.6809,VALID,90,VALID,0.250781,
2008-11-05, 02:21:04,VALID,1008.32,VALID,0,VALID,94.5212,VALID,0,VALID,22.6614,VALID,87,VALID,0.267969,
2008-11-05, 02:22:04,VALID,1008.31,VALID,0,VALID,94.5212,VALID,0,VALID,22.6614,VALID,87,VALID,0.155078,
2008-11-05, 02:23:04,VALID,1008.31,VALID,0,VALID,94.567,VALID,0,VALID,22.6402,VALID,87,VALID,0.0859375,
2008-11-05, 02:24:04,VALID,1008.28,VALID,0,VALID,94.5822,VALID,0,VALID,22.6402,VALID,87,VALID,0,
2008-11-05, 02:25:04,VALID,1008.29,VALID,0,VALID,94.5898,VALID,0,VALID,22.6208,VALID,87,VALID,0,
2008-11-05, 02:26:04,VALID,1008.3,VALID,0,VALID,94.6127,VALID,0,VALID,22.6013,VALID,87,VALID,0,
2008-11-05, 02:27:04,VALID,1008.28,VALID,0,VALID,94.6356,VALID,0,VALID,22.5818,VALID,87,VALID,0,
2008-11-05, 02:28:04,VALID,1008.27,VALID,0,VALID,94.6661,VALID,0,VALID,22.6013,VALID,87,VALID,0,
2008-11-05, 02:29:04,VALID,1008.29,VALID,0,VALID,94.6661,VALID,0,VALID,22.5818,VALID,87,VALID,0,
2008-11-05, 02:30:04,VALID,1008.29,VALID,0,VALID,94.689,VALID,0,VALID,22.5835,VALID,87,VALID,0,
2008-11-05, 02:31:04,VALID,1008.25,VALID,0,VALID,94.7042,VALID,0.105969,VALID,22.5623,VALID,87,VALID,0,
2008-11-05, 02:32:04,VALID,1008.25,VALID,0,VALID,94.7119,VALID,0,VALID,22.5429,VALID,87,VALID,0.0179687,
2008-11-05, 02:33:04,VALID,1008.24,VALID,0,VALID,94.7424,VALID,0,VALID,22.5429,VALID,87,VALID,0.260547,
2008-11-05, 02:34:04,VALID,1008.25,VALID,0,VALID,94.75,VALID,0,VALID,22.5251,VALID,87,VALID,0.269922,
2008-11-05, 02:35:04,VALID,1008.23,VALID,0,VALID,94.7652,VALID,0,VALID,22.5039,VALID,87,VALID,0.143359,
2008-11-05, 02:36:04,VALID,1008.24,VALID,0,VALID,94.7805,VALID,0,VALID,22.5056,VALID,87,VALID,0.0710938,
2008-11-05, 02:37:04,VALID,1008.23,VALID,0,VALID,94.811,VALID,0,VALID,22.5251,VALID,87,VALID,0.213672,
2008-11-05, 02:38:04,VALID,1008.21,VALID,0,VALID,94.872,VALID,0.105969,VALID,22.5039,VALID,87,VALID,0.197656,
2008-11-05, 02:39:04,VALID,1008.21,VALID,0,VALID,94.8873,VALID,0,VALID,22.5234,VALID,87,VALID,0.0476562,
2008-11-05, 02:40:04,VALID,1008.18,VALID,0,VALID,94.933,VALID,0,VALID,22.5446,VALID,87,VALID,0.15,
2008-11-05, 02:41:04,VALID,1008.18,VALID,0,VALID,94.933,VALID,0,VALID,22.5234,VALID,87,VALID,0.0105469,
2008-11-05, 02:42:04,VALID,1008.15,VALID,0,VALID,94.9635,VALID,0,VALID,22.5039,VALID,87,VALID,0.136719,
2008-11-05, 02:43:04,VALID,1008.15,VALID,0,VALID,94.9406,VALID,0,VALID,22.5251,VALID,87,VALID,0.130469,
2008-11-05, 02:44:04,VALID,1008.12,VALID,0,VALID,94.9559,VALID,0,VALID,22.5039,VALID,87,VALID,0.18125,
2008-11-05, 02:45:04,VALID,1008.11,VALID,0,VALID,94.9559,VALID,0.105969,VALID,22.4844,VALID,87,VALID,0.253906,
2008-11-05, 02:46:04,VALID,1008.1,VALID,0,VALID,94.9559,VALID,0,VALID,22.4455,VALID,87,VALID,0.252344,
2008-11-05, 02:47:04,VALID,1008.1,VALID,0,VALID,94.9711,VALID,0,VALID,22.4455,VALID,87,VALID,0.259375,
2008-11-05, 02:48:04,VALID,1008.1,VALID,0,VALID,94.9864,VALID,0,VALID,22.4667,VALID,87,VALID,0.220313,
2008-11-05, 02:49:04,VALID,1008.07,VALID,0,VALID,94.994,VALID,0.105969,VALID,22.426,VALID,87,VALID,0.108203,
2008-11-05, 02:50:04,VALID,1008.07,VALID,0,VALID,94.994,VALID,0,VALID,22.4065,VALID,87,VALID,0.059375,
2008-11-05, 02:51:04,VALID,1008.08,VALID,0,VALID,95.0169,VALID,0.105969,VALID,22.4065,VALID,87,VALID,0,
2008-11-05, 02:52:04,VALID,1008.07,VALID,0,VALID,95.0093,VALID,0,VALID,22.4082,VALID,87,VALID,0,
2008-11-05, 02:53:04,VALID,1008.06,VALID,0,VALID,95.0169,VALID,0,VALID,22.4082,VALID,87,VALID,0.220313,
2008-11-05, 02:54:04,VALID,1008.05,VALID,0,VALID,95.0474,VALID,0,VALID,22.4082,VALID,87,VALID,0.360938,
2008-11-05, 02:55:04,VALID,1008.05,VALID,0,VALID,95.0703,VALID,0,VALID,22.426,VALID,87,VALID,0.581641,
2008-11-05, 02:56:04,VALID,1008.06,VALID,0,VALID,95.0779,VALID,0.105969,VALID,22.4455,VALID,87,VALID,0.680469,
2008-11-05, 02:57:04,VALID,1008.06,VALID,0,VALID,95.1084,VALID,0,VALID,22.426,VALID,88,VALID,0.442187,
2008-11-05, 02:58:04,VALID,1008.04,VALID,0,VALID,95.1084,VALID,0,VALID,22.4455,VALID,88,VALID,0.488281,
2008-11-05, 02:59:04,VALID,1008.05,VALID,0,VALID,95.1389,VALID,0,VALID,22.4861,VALID,88,VALID,0.605469,
2008-11-05, 03:00:04,VALID,1008.04,VALID,0,VALID,95.1313,VALID,0.105969,VALID,22.4844,VALID,90,VALID,0.390234,
2008-11-05, 03:01:04,VALID,1008.05,VALID,0,VALID,95.1542,VALID,0,VALID,22.465,VALID,90,VALID,0.375781,
2008-11-05, 03:02:04,VALID,1008.06,VALID,0,VALID,95.1465,VALID,0,VALID,22.465,VALID,90,VALID,0.334375,
2008-11-05, 03:03:04,VALID,1008.05,VALID,0,VALID,95.1618,VALID,0,VALID,22.4861,VALID,74,VALID,0.578516,
2008-11-05, 03:04:04,VALID,1008.05,VALID,0,VALID,95.1847,VALID,0,VALID,22.4844,VALID,74,VALID,0.337109,
2008-11-05, 03:05:04,VALID,1008.08,VALID,0,VALID,95.177,VALID,0,VALID,22.5056,VALID,72,VALID,0.460938,
2008-11-05, 03:06:04,VALID,1008.09,VALID,0,VALID,95.1694,VALID,0,VALID,22.465,VALID,59,VALID,0.498437,
2008-11-05, 03:07:04,VALID,1008.09,VALID,0,VALID,95.1999,VALID,0,VALID,22.4861,VALID,59,VALID,0.473437,
2008-11-05, 03:08:04,VALID,1008.09,VALID,0,VALID,95.1923,VALID,0,VALID,22.4667,VALID,59,VALID,0.364062,
2008-11-05, 03:09:04,VALID,1008.11,VALID,0,VALID,95.177,VALID,0,VALID,22.4861,VALID,59,VALID,0.452344,
2008-11-05, 03:10:04,VALID,1008.08,VALID,0,VALID,95.1847,VALID,0,VALID,22.4861,VALID,59,VALID,0.317969,
2008-11-05, 03:11:04,VALID,1008.1,VALID,0,VALID,95.1694,VALID,0,VALID,22.4667,VALID,59,VALID,0.265625,
2008-11-05, 03:12:04,VALID,1008.09,VALID,0,VALID,95.1694,VALID,0,VALID,22.4667,VALID,59,VALID,0.287109,
2008-11-05, 03:13:04,VALID,1008.09,VALID,0,VALID,95.1694,VALID,0,VALID,22.465,VALID,73,VALID,0.646875,
2008-11-05, 03:14:04,VALID,1008.09,VALID,0,VALID,95.177,VALID,0,VALID,22.4861,VALID,73,VALID,0.391016,
2008-11-05, 03:15:04,VALID,1008.1,VALID,0,VALID,95.1694,VALID,0,VALID,22.4861,VALID,81,VALID,0.571094,
2008-11-05, 03:16:04,VALID,1008.08,VALID,0,VALID,95.1618,VALID,0,VALID,22.4861,VALID,73,VALID,0.543359,
2008-11-05, 03:17:04,VALID,1008.07,VALID,0,VALID,95.1618,VALID,0,VALID,22.4667,VALID,80,VALID,0.585938,
2008-11-05, 03:18:04,VALID,1008.06,VALID,0,VALID,95.1847,VALID,0,VALID,22.4861,VALID,89,VALID,0.567969,
2008-11-05, 03:19:04,VALID,1008.06,VALID,0,VALID,95.1542,VALID,0,VALID,22.465,VALID,89,VALID,0.549609,
2008-11-05, 03:20:04,VALID,1008.05,VALID,0,VALID,95.177,VALID,0,VALID,22.4861,VALID,89,VALID,0.407031,
2008-11-05, 03:21:04,VALID,1008.08,VALID,0,VALID,95.1542,VALID,0,VALID,22.4861,VALID,89,VALID,0.403516,
2008-11-05, 03:22:04,VALID,1008.08,VALID,0,VALID,95.1465,VALID,0,VALID,22.4861,VALID,89,VALID,0.258984,
2008-11-05, 03:23:04,VALID,1008.1,VALID,0,VALID,95.1542,VALID,0,VALID,22.4861,VALID,89,VALID,0.239453,
2008-11-05, 03:24:04,VALID,1008.12,VALID,0,VALID,95.1313,VALID,0,VALID,22.4667,VALID,89,VALID,0.236328,
2008-11-05, 03:25:04,VALID,1008.13,VALID,0,VALID,95.1236,VALID,0,VALID,22.4667,VALID,88,VALID,0.126953,
2008-11-05, 03:26:04,VALID,1008.14,VALID,0,VALID,95.1236,VALID,0,VALID,22.4667,VALID,88,VALID,0.226953,
2008-11-05, 03:27:04,VALID,1008.11,VALID,0,VALID,95.1008,VALID,0,VALID,22.4667,VALID,88,VALID,0.00273437,
2008-11-05, 03:28:04,VALID,1008.11,VALID,0,VALID,95.0855,VALID,0,VALID,22.426,VALID,88,VALID,0,
2008-11-05, 03:29:04,VALID,1008.11,VALID,0,VALID,95.0626,VALID,0,VALID,22.4277,VALID,88,VALID,0.283203,
2008-11-05, 03:30:04,VALID,1008.12,VALID,0,VALID,95.0779,VALID,0,VALID,22.4277,VALID,77,VALID,0.191797,
2008-11-05, 03:31:04,VALID,1008.14,VALID,0,VALID,95.055,VALID,0,VALID,22.4277,VALID,69,VALID,0.196484,
2008-11-05, 03:32:04,VALID,1008.13,VALID,0,VALID,95.0626,VALID,0,VALID,22.4277,VALID,69,VALID,0.271875,
2008-11-05, 03:33:04,VALID,1008.12,VALID,0,VALID,95.0703,VALID,0,VALID,22.4065,VALID,69,VALID,0.263672,
2008-11-05, 03:34:04,VALID,1008.13,VALID,0,VALID,95.055,VALID,0,VALID,22.4082,VALID,69,VALID,0.407813,
2008-11-05, 03:35:04,VALID,1008.13,VALID,0,VALID,95.0321,VALID,0,VALID,22.4082,VALID,69,VALID,0.329297,
2008-11-05, 03:36:04,VALID,1008.12,VALID,0,VALID,95.0245,VALID,0,VALID,22.3693,VALID,65,VALID,0.538672,
2008-11-05, 03:37:04,VALID,1008.13,VALID,0,VALID,95.0321,VALID,0,VALID,22.3481,VALID,64,VALID,0.402734,
2008-11-05, 03:38:04,VALID,1008.13,VALID,0,VALID,95.0245,VALID,0,VALID,22.3498,VALID,56,VALID,0.383594,
2008-11-05, 03:39:04,VALID,1008.11,VALID,0,VALID,95.0321,VALID,0,VALID,22.3498,VALID,56,VALID,0.332031,
2008-11-05, 03:40:04,VALID,1008.12,VALID,0,VALID,95.0321,VALID,0,VALID,22.3498,VALID,56,VALID,0.388672,
2008-11-05, 03:41:04,VALID,1008.11,VALID,0,VALID,95.0321,VALID,0,VALID,22.3693,VALID,56,VALID,0.0988281,
2008-11-05, 03:42:04,VALID,1008.1,VALID,0,VALID,95.055,VALID,0,VALID,22.3303,VALID,56,VALID,0.333594,
2008-11-05, 03:43:04,VALID,1008.1,VALID,0,VALID,95.0474,VALID,0,VALID,22.3303,VALID,59,VALID,0.448438,
2008-11-05, 03:44:04,VALID,1008.11,VALID,0,VALID,95.055,VALID,0,VALID,22.3303,VALID,59,VALID,0.226563,
2008-11-05, 03:45:04,VALID,1008.1,VALID,0,VALID,95.0474,VALID,0,VALID,22.3303,VALID,60,VALID,0.593359,
2008-11-05, 03:46:04,VALID,1008.09,VALID,0,VALID,95.0626,VALID,0,VALID,22.2897,VALID,62,VALID,0.422266,